This is the latest recevied weather packets stored in our database for station/object KGRR-WX. If no packets are shown the sender has not sent any weather packets the latest 10 day(s).
| Time | Temp. | Humidity | Pressure | Rain* | Wind** | Luminosity | Snow |
|---|---|---|---|---|---|---|---|
| 1778127307 | 6.67° C | 62% | 986 hPa | 0 mm | - | - | - |
| 1778126427 | 6.67° C | 62% | 986 hPa | 0 mm | - | - | - |
| 1778125507 | 6.67° C | 51% | 986.9 hPa | 0 mm | - | - | - |
| 1778124614 | 6.11° C | 59% | 985 hPa | 0 mm | - | - | - |
| 1778123707 | 5.56° C | 59% | 985 hPa | 0 mm | - | - | - |
| 1778122827 | 6.11° C | 59% | 985 hPa | 0 mm | - | - | - |
| 1778121907 | 6.11° C | 53% | 986.1 hPa | 0 mm | - | - | - |
| 1778121014 | 6.67° C | 54% | 985.8 hPa | 0 mm | - | - | - |
| 1778120106 | 6.67° C | 54% | 985.7 hPa | 0 mm | - | - | - |
| 1778119217 | 6.67° C | 54% | 985.7 hPa | 0 mm | - | - | - |
| 1778118306 | 6.67° C | 47% | 985.5 hPa | 0 mm | - | - | - |
| 1778117414 | 6.67° C | 47% | 985.5 hPa | 0 mm | - | - | - |
| 1778116506 | 7.78° C | 47% | 985.5 hPa | 0 mm | - | - | - |
| 1778115624 | 7.78° C | 47% | 985.5 hPa | 0 mm | - | - | - |
| 1778114706 | 8.33° C | 38% | 986.3 hPa | 0 mm | - | - | - |
| 1778113821 | 8.33° C | 40% | 986.2 hPa | 0 mm | - | - | - |
| 1778112906 | 8.89° C | 40% | 986.2 hPa | 0 mm | - | - | - |
| 1778112025 | 9.44° C | 40% | 986.2 hPa | 0 mm | - | - | - |
| 1778111106 | 10° C | 37% | 984.9 hPa | 0 mm | - | - | - |
| 1778110223 | 10° C | 37% | 985 hPa | 0 mm | - | - | - |
| 1778109306 | 10.56° C | 37% | 985 hPa | 0 mm | - | - | - |
| 1778108425 | 10.56° C | 37% | 985 hPa | 0 mm | - | - | - |
| 1778107505 | 10.56° C | 34% | 985.4 hPa | 0 mm | - | - | - |
| 1778106613 | 10.56° C | 35% | 985.7 hPa | 0 mm | - | - | - |
| 1778105705 | 10.56° C | 35% | 985.7 hPa | 0 mm | - | - | - |
* Rain latest hour (hover to see other rain measurements)
** Current wind speed in m/s (hover to see current wind gust speed)